"Period start","avg(HW err(1)/warn(2) (#))","avg(Visibility (m))","avg(Weather code (#))","avg(Precip intensity (mm/h))","min(HW err(1)/warn(2) (#))","max(HW err(1)/warn(2) (#))","std(HW err(1)/warn(2) (#))","med(HW err(1)/warn(2) (#))","min(Visibility (m))","max(Visibility (m))","std(Visibility (m))","med(Visibility (m))","min(Weather code (#))","max(Weather code (#))","std(Weather code (#))","med(Weather code (#))","min(Precip intensity (mm/h))","max(Precip intensity (mm/h))","std(Precip intensity (mm/h))","med(Precip intensity (mm/h))"
2014-08-10 00:00:00,0,43676,0,0.00,0,0,0,0,36606,47959,3317,44390,0,0,0,0,0.00,0.00,0.00,0.00
2014-08-10 00:10:00,0,40315,0,0.00,0,0,0,0,28185,50000,8358,41440,0,0,0,0,0.00,0.00,0.00,0.00
2014-08-10 00:20:00,0,34193,0,0.00,0,0,0,0,25625,43550,5666,33713,0,0,0,0,0.00,0.00,0.00,0.00
2014-08-10 00:30:00,0,34344,0,0.00,0,0,0,0,15587,44023,8293,37240,0,0,0,0,0.00,0.00,0.00,0.00
2014-08-10 00:40:00,0,42000,0,0.00,0,0,0,0,34662,49831,5593,42933,0,0,0,0,0.00,0.00,0.00,0.00
2014-08-10 00:50:00,0,49243,0,0.00,0,0,0,0,46557,50000,1225,50000,0,0,0,0,0.00,0.00,0.00,0.00
2014-08-10 01:00:00,0,35004,0,0.00,0,0,0,0,26693,41761,4823,35326,0,0,0,0,0.00,0.00,0.00,0.00
2014-08-10 01:10:00,0,34459,0,0.00,0,0,0,0,27366,49264,6428,32456,0,0,0,0,0.00,0.00,0.00,0.00
2014-08-10 01:20:00,0,40918,0,0.00,0,0,0,0,28618,50000,6748,41102,0,0,0,0,0.00,0.00,0.00,0.00
2014-08-10 01:30:00,0,42384,0,0.00,0,0,0,0,28014,50000,8486,46982,0,0,0,0,0.00,0.00,0.00,0.00
2014-08-10 01:40:00,0,42845,0,0.00,0,0,0,0,26902,49761,7194,44604,0,0,0,0,0.00,0.00,0.00,0.00
2014-08-10 01:50:00,0,39897,0,0.00,0,0,0,0,22116,50000,9721,44788,0,0,0,0,0.00,0.00,0.00,0.00
2014-08-10 02:00:00,0,44165,0,0.00,0,0,0,0,36206,50000,4922,43565,0,0,0,0,0.00,0.00,0.00,0.00
2014-08-10 02:10:00,0,46424,0,0.00,0,0,0,0,40603,50000,3103,47088,0,0,0,0,0.00,0.00,0.00,0.00
2014-08-10 02:20:00,0,42592,0,0.00,0,0,0,0,33961,50000,5524,42756,0,0,0,0,0.00,0.00,0.00,0.00
2014-08-10 02:30:00,0,40988,0,0.00,0,0,0,0,34279,50000,4416,40366,0,0,0,0,0.00,0.00,0.00,0.00
2014-08-10 02:40:00,0,34775,0,0.00,0,0,0,0,13338,47842,9721,34606,0,0,0,0,0.00,0.00,0.00,0.00
2014-08-10 02:50:00,0,42557,0,0.00,0,0,0,0,36995,50000,4333,42182,0,0,0,0,0.00,0.00,0.00,0.00
2014-08-10 03:00:00,0,37062,0,0.00,0,0,0,0,24987,49953,7061,36746,0,0,0,0,0.00,0.00,0.00,0.00
2014-08-10 03:10:00,0,35074,0,0.00,0,0,0,0,24374,45990,7408,34626,0,0,0,0,0.00,0.00,0.00,0.00
2014-08-10 03:20:00,0,44583,0,0.00,0,0,0,0,38946,50000,4086,44148,0,0,0,0,0.00,0.00,0.00,0.00
2014-08-10 03:30:00,0,42586,0,0.00,0,0,0,0,30458,50000,5669,42319,0,0,0,0,0.00,0.00,0.00,0.00
2014-08-10 03:40:00,0,40933,0,0.00,0,0,0,0,35474,48360,4099,40708,0,0,0,0,0.00,0.00,0.00,0.00
2014-08-10 03:50:00,0,36097,0,0.00,0,0,0,0,23145,50000,7918,33966,0,0,0,0,0.00,0.00,0.00,0.00
2014-08-10 04:00:00,0,33600,0,0.00,0,0,0,0,24384,45211,5344,33954,0,0,0,0,0.00,0.00,0.00,0.00
2014-08-10 04:10:00,0,40474,0,0.00,0,0,0,0,28410,50000,6402,39811,0,0,0,0,0.00,0.00,0.00,0.00
2014-08-10 04:20:00,0,36549,0,0.00,0,0,0,0,25941,43492,5533,35323,0,0,0,0,0.00,0.00,0.00,0.00
2014-08-10 04:30:00,0,34290,0,0.00,0,0,0,0,24309,43174,6017,34352,0,0,0,0,0.00,0.00,0.00,0.00
2014-08-10 04:40:00,0,43993,0,0.00,0,0,0,0,36530,50000,5457,43337,0,0,0,0,0.00,0.00,0.00,0.00
2014-08-10 04:50:00,0,39163,0,0.00,0,0,0,0,29216,46947,5691,39821,0,0,0,0,0.00,0.00,0.00,0.00
2014-08-10 05:00:00,0,47164,0,0.00,0,0,0,0,37320,50000,3978,48992,0,0,0,0,0.00,0.00,0.00,0.00
2014-08-10 05:10:00,0,48618,0,0.00,0,0,0,0,44639,50000,2085,49873,0,0,0,0,0.00,0.00,0.00,0.00
2014-08-10 05:20:00,0,45268,0,0.00,0,0,0,0,34673,50000,5120,47618,0,0,0,0,0.00,0.00,0.00,0.00
2014-08-10 05:30:00,0,44170,0,0.00,0,0,0,0,35437,49913,4658,45176,0,0,0,0,0.00,0.00,0.00,0.00
2014-08-10 05:40:00,0,42452,0,0.00,0,0,0,0,31834,49732,4745,42696,0,0,0,0,0.00,0.00,0.00,0.00
2014-08-10 05:50:00,0,40100,0,0.00,0,0,0,0,27542,47557,6983,42426,0,0,0,0,0.00,0.00,0.00,0.00
2014-08-10 06:00:00,0,30106,0,0.00,0,0,0,0,24811,38273,3925,28875,0,0,0,0,0.00,0.00,0.00,0.00
2014-08-10 06:10:00,0,31136,0,0.00,0,0,0,0,23131,37314,4151,31250,0,0,0,0,0.00,0.00,0.00,0.00
2014-08-10 06:20:00,0,38554,0,0.00,0,0,0,0,31855,43907,3982,38964,0,0,0,0,0.00,0.00,0.00,0.00
2014-08-10 06:30:00,0,39419,0,0.00,0,0,0,0,27501,50000,8619,41014,0,0,0,0,0.00,0.00,0.00,0.00
2014-08-10 06:40:00,0,39598,0,0.00,0,0,0,0,34654,46908,4306,37486,0,0,0,0,0.00,0.00,0.00,0.00
2014-08-10 06:50:00,0,35233,0,0.00,0,0,0,0,29654,41569,4404,34493,0,0,0,0,0.00,0.00,0.00,0.00
2014-08-10 07:00:00,0,34778,0,0.00,0,0,0,0,26325,45446,5332,35144,0,0,0,0,0.00,0.00,0.00,0.00
2014-08-10 07:10:00,0,31813,0,0.00,0,0,0,0,25809,38227,3780,32262,0,0,0,0,0.00,0.00,0.00,0.00
2014-08-10 07:20:00,0,34980,0,0.00,0,0,0,0,24406,41011,5690,37039,0,0,0,0,0.00,0.00,0.00,0.00
2014-08-10 07:30:00,0,28241,0,0.00,0,0,0,0,22537,40754,5500,27785,0,0,0,0,0.00,0.00,0.00,0.00
2014-08-10 07:40:00,0,27529,0,0.00,0,0,0,0,21229,36291,4241,26852,0,0,0,0,0.00,0.00,0.00,0.00
2014-08-10 07:50:00,0,30425,0,0.00,0,0,0,0,27206,33810,2367,29557,0,0,0,0,0.00,0.00,0.00,0.00
2014-08-10 08:00:00,0,28812,0,0.00,0,0,0,0,25289,32007,2261,29322,0,0,0,0,0.00,0.00,0.00,0.00
2014-08-10 08:10:00,0,28863,0,0.00,0,0,0,0,21613,38550,4932,29615,0,0,0,0,0.00,0.00,0.00,0.00
2014-08-10 08:20:00,0,28214,0,0.00,0,0,0,0,22451,33206,3307,28251,0,0,0,0,0.00,0.00,0.00,0.00
2014-08-10 08:30:00,0,29752,0,0.00,0,0,0,0,24355,35002,4300,27840,0,0,0,0,0.00,0.00,0.00,0.00
2014-08-10 08:40:00,0,25275,0,0.00,0,0,0,0,19393,32733,3607,25248,0,0,0,0,0.00,0.00,0.00,0.00
2014-08-10 08:50:00,0,30801,0,0.00,0,0,0,0,22931,38825,5202,30743,0,0,0,0,0.00,0.00,0.00,0.00
2014-08-10 09:00:00,0,27491,0,0.00,0,0,0,0,22451,31852,2681,27895,0,0,0,0,0.00,0.00,0.00,0.00
2014-08-10 09:10:00,0,30732,0,0.00,0,0,0,0,24572,37917,3742,31356,0,0,0,0,0.00,0.00,0.00,0.00
2014-08-10 09:20:00,0,30370,0,0.00,0,0,0,0,27750,34714,2197,30216,0,0,0,0,0.00,0.00,0.00,0.00
2014-08-10 09:30:00,0,28372,0,0.00,0,0,0,0,23321,32358,3056,28136,0,0,0,0,0.00,0.00,0.00,0.00
2014-08-10 09:40:00,0,27577,0,0.00,0,0,0,0,21093,33206,3509,28069,0,0,0,0,0.00,0.00,0.00,0.00
2014-08-10 09:50:00,0,28431,0,0.00,0,0,0,0,23143,36414,4054,28415,0,0,0,0,0.00,0.00,0.00,0.00
2014-08-10 10:00:00,0,26303,0,0.00,0,0,0,0,22638,30632,2532,26446,0,0,0,0,0.00,0.00,0.00,0.00
2014-08-10 10:10:00,0,25477,0,0.00,0,0,0,0,21231,31435,3042,24473,0,0,0,0,0.00,0.00,0.00,0.00
2014-08-10 10:20:00,0,23167,0,0.00,0,0,0,0,19225,30480,3348,21862,0,0,0,0,0.00,0.00,0.00,0.00
2014-08-10 10:30:00,0,22642,0,0.00,0,0,0,0,14804,28764,4037,22568,0,0,0,0,0.00,0.00,0.00,0.00
2014-08-10 10:40:00,0,24164,0,0.00,0,0,0,0,20402,25852,1799,25199,0,0,0,0,0.00,0.00,0.00,0.00
2014-08-10 10:50:00,0,25704,0,0.00,0,0,0,0,21976,27651,1423,25850,0,0,0,0,0.00,0.00,0.00,0.00
2014-08-10 11:00:00,0,22714,0,0.00,0,0,0,0,18768,27639,2533,22078,0,0,0,0,0.00,0.00,0.00,0.00
2014-08-10 11:10:00,0,21991,0,0.00,0,0,0,0,20308,24599,1273,21776,0,0,0,0,0.00,0.00,0.00,0.00
2014-08-10 11:20:00,0,25404,0,0.00,0,0,0,0,20505,29864,2575,25443,0,0,0,0,0.00,0.00,0.00,0.00
2014-08-10 11:30:00,0,26805,0,0.00,0,0,0,0,21289,31779,2691,26981,0,0,0,0,0.00,0.00,0.00,0.00
2014-08-10 11:40:00,0,19787,0,0.00,0,0,0,0,17789,23524,1765,19188,0,0,0,0,0.00,0.00,0.00,0.00
2014-08-10 11:50:00,0,20164,0,0.00,0,0,0,0,16975,21800,1386,20276,0,0,0,0,0.00,0.00,0.00,0.00
2014-08-10 12:00:00,0,20342,0,0.00,0,0,0,0,18164,23147,1538,20046,0,0,0,0,0.00,0.00,0.00,0.00
2014-08-10 12:10:00,0,20109,0,0.00,0,0,0,0,17263,21697,1174,20296,0,0,0,0,0.00,0.00,0.00,0.00
2014-08-10 12:20:00,0,20373,0,0.00,0,0,0,0,18171,24068,1688,20006,0,0,0,0,0.00,0.00,0.00,0.00
2014-08-10 12:30:00,0,21231,0,0.00,0,0,0,0,19102,23878,1699,20856,0,0,0,0,0.00,0.00,0.00,0.00
2014-08-10 12:40:00,0,19630,0,0.00,0,0,0,0,17795,21444,1236,19840,0,0,0,0,0.00,0.00,0.00,0.00
2014-08-10 12:50:00,0,19748,0,0.00,0,0,0,0,17569,23154,1749,19414,0,0,0,0,0.00,0.00,0.00,0.00
2014-08-10 13:00:00,0,19688,0,0.00,0,0,0,0,17743,21543,980,19568,0,0,0,0,0.00,0.00,0.00,0.00
2014-08-10 13:10:00,0,18930,0,0.00,0,0,0,0,17599,20652,1021,18757,0,0,0,0,0.00,0.00,0.00,0.00
2014-08-10 13:20:00,0,19068,0,0.00,0,0,0,0,17694,20466,951,18990,0,0,0,0,0.00,0.00,0.00,0.00
2014-08-10 13:30:00,0,18607,0,0.00,0,0,0,0,17067,20139,1034,18512,0,0,0,0,0.00,0.00,0.00,0.00
2014-08-10 13:40:00,0,18984,0,0.00,0,0,0,0,17783,21448,1203,18432,0,0,0,0,0.00,0.00,0.00,0.00
2014-08-10 13:50:00,0,17007,0,0.00,0,0,0,0,10845,21165,2719,16926,0,0,0,0,0.00,0.00,0.00,0.00
2014-08-10 14:00:00,0,17550,0,0.00,0,0,0,0,15210,20625,1610,17166,0,0,0,0,0.00,0.00,0.00,0.00
2014-08-10 14:10:00,0,16704,0,0.00,0,0,0,0,15230,17621,731,16996,0,0,0,0,0.00,0.00,0.00,0.00
2014-08-10 14:20:00,0,15957,0,0.00,0,0,0,0,14652,16803,532,15965,0,0,0,0,0.00,0.00,0.00,0.00
2014-08-10 14:30:00,0,16810,0,0.00,0,0,0,0,15879,17899,699,16977,0,0,0,0,0.00,0.00,0.00,0.00
2014-08-10 14:40:00,0,16932,0,0.00,0,0,0,0,15376,18522,871,17090,0,0,0,0,0.00,0.00,0.00,0.00
2014-08-10 14:50:00,0,16675,0,0.00,0,0,0,0,16179,18072,567,16438,0,0,0,0,0.00,0.00,0.00,0.00
2014-08-10 15:00:00,0,15906,0,0.00,0,0,0,0,14621,17014,599,15943,0,0,0,0,0.00,0.00,0.00,0.00
2014-08-10 15:10:00,0,16725,0,0.00,0,0,0,0,16089,17290,364,16660,0,0,0,0,0.00,0.00,0.00,0.00
2014-08-10 15:20:00,0,16949,0,0.00,0,0,0,0,15738,18943,944,16682,0,0,0,0,0.00,0.00,0.00,0.00
2014-08-10 15:30:00,0,17886,0,0.00,0,0,0,0,15893,19296,1004,18064,0,0,0,0,0.00,0.00,0.00,0.00
2014-08-10 15:40:00,0,18161,0,0.00,0,0,0,0,16773,19879,1032,18170,0,0,0,0,0.00,0.00,0.00,0.00
2014-08-10 15:50:00,0,18375,0,0.00,0,0,0,0,16802,20726,1336,18048,0,0,0,0,0.00,0.00,0.00,0.00
2014-08-10 16:00:00,0,18315,0,0.00,0,0,0,0,16425,21781,1874,17396,0,0,0,0,0.00,0.00,0.00,0.00
2014-08-10 16:10:00,0,17950,0,0.00,0,0,0,0,16986,18926,661,17903,0,0,0,0,0.00,0.00,0.00,0.00
2014-08-10 16:20:00,0,18505,0,0.00,0,0,0,0,16932,20152,832,18394,0,0,0,0,0.00,0.00,0.00,0.00
2014-08-10 16:30:00,0,18841,0,0.00,0,0,0,0,17466,20753,837,18744,0,0,0,0,0.00,0.00,0.00,0.00
2014-08-10 16:40:00,0,18287,0,0.00,0,0,0,0,16620,19536,946,18589,0,0,0,0,0.00,0.00,0.00,0.00
2014-08-10 16:50:00,0,18153,0,0.00,0,0,0,0,17296,19105,569,18074,0,0,0,0,0.00,0.00,0.00,0.00
2014-08-10 17:00:00,0,18687,0,0.00,0,0,0,0,16785,22103,1575,18078,0,0,0,0,0.00,0.00,0.00,0.00
2014-08-10 17:10:00,0,18739,0,0.00,0,0,0,0,17247,20860,1306,18418,0,0,0,0,0.00,0.00,0.00,0.00
2014-08-10 17:20:00,0,19638,0,0.00,0,0,0,0,17873,23621,1640,19448,0,0,0,0,0.00,0.00,0.00,0.00
2014-08-10 17:30:00,0,22398,0,0.00,0,0,0,0,19387,27917,2628,21593,0,0,0,0,0.00,0.00,0.00,0.00
2014-08-10 17:40:00,0,27281,0,0.00,0,0,0,0,23143,37205,4127,25904,0,0,0,0,0.00,0.00,0.00,0.00
2014-08-10 17:50:00,0,25685,6,0.04,0,0,0,0,17814,31975,4512,26904,0,61,18,0,0.00,0.45,0.13,0.00
2014-08-10 18:00:00,0,22547,58,1.12,0,0,0,0,18176,27242,2758,22334,52,61,4,61,0.60,2.15,0.47,1.02
2014-08-10 18:10:00,0,23288,61,1.36,0,0,0,0,18227,32896,4587,22622,61,61,0,61,0.45,1.90,0.53,1.62
2014-08-10 18:20:00,0,26136,53,1.47,0,0,0,0,20129,35107,4976,25298,51,61,3,52,0.25,5.95,1.59,1.12
2014-08-10 18:30:00,0,22746,61,3.50,0,0,0,0,18578,30276,3345,22040,61,61,0,61,0.50,8.25,2.33,3.10
2014-08-10 18:40:00,0,22270,61,4.79,0,0,0,0,16467,37382,6935,19078,61,61,0,61,1.00,8.65,2.40,5.05
2014-08-10 18:50:00,0,34732,61,2.05,0,0,0,0,24290,45885,6803,32983,61,61,0,61,0.10,9.00,2.55,1.40
2014-08-10 19:00:00,0,47135,40,0.06,0,0,0,0,40828,50000,3088,48432,0,61,26,51,0.00,0.20,0.07,0.00
2014-08-10 19:10:00,0,47759,51,0.21,0,0,0,0,40953,50000,3274,49586,51,51,0,51,0.05,0.65,0.16,0.15
2014-08-10 19:20:00,0,42250,51,1.06,0,0,0,0,21412,50000,9889,46248,51,52,0,51,0.05,4.85,1.40,0.53
2014-08-10 19:30:00,0,32993,59,1.93,0,0,0,0,15932,48350,10231,35526,52,61,4,61,0.20,4.70,1.73,1.33
2014-08-10 19:40:00,0,47396,59,2.08,0,0,0,0,33077,50000,5294,50000,51,61,4,61,0.00,5.80,1.77,1.90
2014-08-10 19:50:00,0,32343,61,2.55,0,0,0,0,24040,41610,5726,32469,61,61,0,61,0.25,6.80,1.73,2.45
2014-08-10 20:00:00,0,47106,57,0.12,0,0,0,0,41026,50000,3105,47699,41,61,8,61,0.00,0.40,0.11,0.10
2014-08-10 20:10:00,0,31198,32,0.46,0,0,0,0,20774,47625,8637,30188,0,52,23,41,0.00,1.10,0.40,0.40
2014-08-10 20:20:00,0,47603,27,0.02,0,0,0,0,36253,50000,4302,50000,0,61,27,26,0.00,0.15,0.05,0.00
2014-08-10 20:30:00,0,40069,54,0.33,0,0,0,0,31001,48835,4817,40116,51,61,5,51,0.05,0.90,0.26,0.25
2014-08-10 20:40:00,0,28884,52,1.43,0,0,0,0,19659,37303,6140,29252,51,52,0,52,0.60,3.05,0.87,0.95
2014-08-10 20:50:00,0,39537,48,0.59,0,0,0,0,25325,50000,7826,39874,0,61,24,61,0.00,2.20,0.68,0.40
2014-08-10 21:00:00,0,41449,28,0.25,0,0,0,0,29325,50000,6805,39598,0,61,28,26,0.00,0.80,0.31,0.03
2014-08-10 21:10:00,0,39395,53,0.12,0,0,0,0,31094,48641,5540,37824,41,61,7,51,0.00,0.45,0.12,0.08
2014-08-10 21:20:00,0,44818,55,0.49,0,0,0,0,36872,50000,3975,45145,51,61,5,51,0.00,1.50,0.49,0.33
2014-08-10 21:30:00,0,38152,45,0.81,0,0,0,0,25848,46915,7434,40652,0,61,23,52,0.00,1.35,0.52,1.08
2014-08-10 21:40:00,0,46157,0,0.00,0,0,0,0,41043,50000,3183,46485,0,0,0,0,0.00,0.00,0.00,0.00
2014-08-10 21:50:00,0,46606,0,0.00,0,0,0,0,43123,50000,1953,46150,0,0,0,0,0.00,0.00,0.00,0.00
2014-08-10 22:00:00,0,46063,0,0.00,0,0,0,0,38923,50000,3840,46652,0,0,0,0,0.00,0.00,0.00,0.00
2014-08-10 22:10:00,0,45572,0,0.00,0,0,0,0,35030,50000,5140,47716,0,0,0,0,0.00,0.00,0.00,0.00
2014-08-10 22:20:00,0,47645,0,0.00,0,0,0,0,41365,50000,2789,48780,0,0,0,0,0.00,0.00,0.00,0.00
2014-08-10 22:30:00,0,48410,0,0.00,0,0,0,0,42868,50000,2330,49754,0,0,0,0,0.00,0.00,0.00,0.00
2014-08-10 22:40:00,0,47873,0,0.00,0,0,0,0,41703,50000,3034,50000,0,0,0,0,0.00,0.00,0.00,0.00
2014-08-10 22:50:00,0,48590,0,0.00,0,0,0,0,44585,50000,1769,49130,0,0,0,0,0.00,0.00,0.00,0.00
2014-08-10 23:00:00,0,48001,0,0.00,0,0,0,0,43043,50000,2308,48987,0,0,0,0,0.00,0.00,0.00,0.00
2014-08-10 23:10:00,0,48810,0,0.00,0,0,0,0,40629,50000,2774,50000,0,0,0,0,0.00,0.00,0.00,0.00
2014-08-10 23:20:00,0,43714,0,0.00,0,0,0,0,35295,50000,3893,43626,0,0,0,0,0.00,0.00,0.00,0.00
2014-08-10 23:30:00,0,46171,0,0.00,0,0,0,0,39346,50000,3895,47256,0,0,0,0,0.00,0.00,0.00,0.00
2014-08-10 23:40:00,0,45370,0,0.00,0,0,0,0,36041,50000,3785,45972,0,0,0,0,0.00,0.00,0.00,0.00
2014-08-10 23:50:00,0,47135,0,0.00,0,0,0,0,40605,50000,2985,48059,0,0,0,0,0.00,0.00,0.00,0.00
